Theta_e
333 333 333 333 333 332 333 333 333 333 332 332 332 332 333 333 333 333 333 333 333 333 333 334 334 334 334 334 334 333 332 332 332 333 333 334 335 335 334 332 329 328 327 327 330 331 331 331 331 331 331 330 330 329 329 329 329 329 328 328 328 327 326 326 326 326 325 325 324 323 323 323 323 324 324 324 323 323 323 323 323 324 324 324 324
331 331 332 332 332 332 332 332 332 333 333 332 332 332 333 333 334 334 334 334 333 333 333 333 333 334 334 334 334 333 333 333 333 333 334 334 334 335 335 332 330 329 328 327 328 331 332 332 332 332 332 331 331 330 330 330 330 330 329 329 329 328 327 327 327 327 327 327 326 325 325 324 325 325 325 325 325 325 324 325 325 326 326 326 326
327 327 327 327 328 330 331 331 331 332 332 332 333 333 333 334 334 334 333 333 333 333 333 333 333 333 333 333 333 333 333 333 333 333 334 334 334 335 335 333 331 331 331 330 328 329 330 331 331 332 333 332 332 332 331 331 331 331 331 330 330 329 329 329 329 328 328 327 327 327 326 326 326 326 326 326 326 326 326 327 327 327 328 328 328
325 324 323 322 321 323 328 330 330 331 332 332 333 333 334 333 333 334 333 333 333 333 333 333 333 333 332 332 332 332 332 332 333 333 334 334 335 335 335 335 333 333 333 333 332 330 329 327 328 330 332 332 333 333 333 332 332 332 332 331 331 331 331 331 330 330 330 328 328 327 326 326 326 326 327 327 327 327 328 328 329 329 329 329 329
323 322 321 320 318 319 325 329 330 331 332 332 333 334 333 333 333 333 333 333 332 332 332 333 333 333 332 332 331 332 331 332 333 333 333 333 334 334 334 334 334 334 334 334 334 333 332 329 328 329 330 331 332 332 332 333 334 334 333 333 333 333 332 332 332 332 332 331 330 329 328 327 327 328 329 329 329 329 329 329 329 329 329 330 330
323 322 322 320 319 321 325 328 329 330 331 332 332 332 332 333 332 332 333 332 332 332 332 332 332 332 332 332 332 332 332 332 332 332 332 333 333 333 332 332 333 333 333 333 334 333 333 333 331 331 331 331 331 331 331 332 333 334 334 334 334 334 333 333 334 333 333 333 332 332 330 330 330 330 330 330 330 330 330 330 330 330 330 331 331
324 324 324 323 321 322 325 327 328 329 330 330 331 331 331 332 332 332 332 332 332 332 332 332 331 331 331 331 331 331 331 332 332 332 333 333 333 333 333 332 331 332 332 332 333 332 333 333 333 332 332 332 333 333 332 332 332 333 334 334 334 334 333 333 333 333 333 333 333 333 332 331 331 331 331 331 331 331 331 331 331 331 331 332 331
325 325 325 325 324 324 324 324 326 328 329 330 330 330 330 331 331 331 331 331 331 331 331 330 330 330 330 330 330 330 331 331 331 332 332 333 333 333 333 333 332 332 332 332 332 333 333 333 333 333 333 333 333 333 333 333 334 334 334 334 334 334 334 333 333 333 332 332 333 333 332 332 332 332 332 332 332 332 332 332 332 331 332 331 331
325 326 326 326 326 326 325 324 324 324 327 328 329 329 329 330 330 330 329 329 329 329 330 329 329 329 329 329 329 329 329 329 329 330 332 332 333 334 333 333 333 333 333 333 333 334 334 333 333 333 333 333 333 332 332 333 333 333 333 333 333 333 334 334 334 333 332 332 332 331 331 332 332 332 332 332 332 332 331 331 331 331 331 331 331
326 326 326 326 326 326 326 326 325 324 325 326 327 329 329 329 329 329 328 328 328 328 328 329 328 328 328 328 329 329 329 329 329 331 333 333 333 334 333 332 333 333 333 332 333 333 333 333 333 332 331 331 331 331 331 332 332 331 332 331 330 330 331 333 334 334 333 333 332 331 331 331 332 332 332 332 332 332 331 331 331 332 332 331 331
326 326 326 326 326 326 327 327 327 326 326 326 326 327 328 328 328 328 328 327 327 327 328 328 328 328 328 329 329 330 331 331 331 332 333 333 333 332 332 332 332 332 332 331 331 331 331 331 330 330 330 330 330 330 330 331 331 331 331 331 332 331 330 331 333 335 335 334 333 332 332 331 331 331 331 332 331 331 332 331 331 332 332 331 331
326 326 326 326 326 326 326 326 326 326 326 326 326 327 327 327 327 327 327 327 327 327 327 328 328 328 329 329 330 330 330 330 331 331 331 331 331 331 331 331 331 331 331 330 330 330 330 330 329 329 329 329 328 328 329 330 330 330 330 331 332 333 332 331 333 334 335 334 333 332 332 331 331 331 332 332 331 332 331 331 331 331 331 330 330
325 325 325 325 325 326 326 326 326 325 326 326 326 326 326 326 326 326 326 326 326 326 326 327 327 327 328 328 329 329 329 330 329 329 330 330 330 330 330 330 330 330 329 329 329 329 328 328 327 327 327 327 328 328 328 329 329 329 330 330 332 333 333 333 333 333 334 333 332 332 332 331 331 331 331 331 331 331 331 330 330 330 329 329 329
324 324 323 324 324 325 324 325 325 325 325 325 325 325 326 326 326 326 326 326 326 326 325 326 327 327 327 327 329 329 328 329 329 328 328 329 329 329 329 329 329 328 328 328 327 326 326 326 326 326 327 327 327 328 328 329 329 329 329 330 331 331 331 333 332 332 332 332 331 331 331 331 331 331 331 331 331 330 329 329 328 328 327 327 327
324 324 324 323 324 324 323 324 324 325 325 325 325 324 325 325 326 326 326 326 326 325 326 326 327 327 326 327 329 331 331 328 328 328 328 328 328 328 328 328 327 327 326 325 325 325 325 326 327 327 327 327 328 328 328 329 329 329 329 330 330 331 331 331 331 331 331 331 331 330 330 330 330 330 330 329 329 328 327 327 326 326 325 325 325
324 324 323 323 323 323 323 324 324 324 324 324 324 324 325 325 325 325 325 325 325 325 326 327 328 327 327 326 325 330 334 329 326 327 327 328 328 327 326 326 325 325 325 324 324 324 324 325 325 325 327 328 328 328 327 327 328 328 329 329 330 330 330 330 330 330 330 330 330 330 330 329 329 329 328 327 326 326 325 324 324 324 324 324 324
324 323 323 322 322 322 322 323 323 323 323 323 324 324 324 325 325 325 325 325 325 325 327 327 328 328 327 327 325 329 333 327 326 327 327 328 328 326 325 324 324 323 323 323 323 323 324 324 324 324 326 326 326 327 327 327 327 328 329 329 329 329 329 329 329 329 329 329 328 328 328 328 327 326 325 324 324 323 322 322 322 322 322 322 322
324 323 323 322 321 322 322 322 322 323 324 324 324 324 324 325 325 326 325 326 326 326 326 326 328 328 327 327 327 328 329 326 326 328 327 328 328 327 325 323 322 322 321 321 320 321 321 322 323 324 325 325 325 326 326 326 326 326 327 328 328 327 327 327 327 327 327 327 326 326 326 326 325 324 323 322 322 321 321 321 320 320 321 321 321
323 323 322 321 321 321 321 322 322 323 323 323 323 324 325 326 326 326 326 326 326 326 326 326 327 327 328 328 327 327 327 326 326 328 328 328 328 328 325 321 320 320 319 318 316 316 316 318 320 323 324 325 325 326 325 325 325 325 325 325 325 325 324 325 324 324 324 325 324 323 323 323 323 322 321 320 320 320 320 319 319 318 319 320 320
322 321 321 320 320 321 322 322 323 323 323 323 324 324 325 326 326 326 326 326 326 326 326 326 326 327 327 327 327 327 327 326 326 327 328 328 328 327 323 320 319 318 317 317 315 314 314 313 316 320 322 323 324 325 324 324 324 324 323 323 323 322 321 322 321 321 321 322 322 322 321 321 321 320 320 319 319 319 318 318 318 317 317 319 319
321 320 320 320 320 322 322 323 323 323 323 323 323 324 324 324 325 325 326 326 326 326 325 326 326 326 327 327 326 326 326 324 324 326 327 328 328 326 323 321 319 317 316 316 316 314 313 312 312 315 319 322 323 323 323 323 323 323 322 322 322 321 320 320 319 319 319 319 319 319 318 318 318 318 317 317 316 316 316 316 316 316 316 317 318
320 320 320 320 320 321 322 322 322 322 322 322 322 322 322 323 323 324 324 325 325 325 325 325 325 326 326 326 325 324 324 323 323 324 325 326 327 326 324 323 321 319 315 314 316 315 314 313 311 311 315 318 320 320 320 320 320 321 320 319 318 318 317 318 317 317 317 317 317 316 316 316 316 316 315 315 313 312 313 314 315 315 315 316 317
320 320 319 319 319 320 321 322 322 322 322 321 321 321 321 321 322 322 323 323 324 324 325 324 324 325 325 325 325 324 324 324 323 323 323 325 326 325 324 323 322 320 316 313 314 316 315 314 310 308 310 313 314 315 315 314 315 316 316 316 316 315 315 314 314 314 314 314 314 314 313 313 312 311 311 311 310 309 311 313 313 314 314 314 315
321 320 319 319 319 320 320 322 323 322 321 321 320 320 320 320 320 320 320 321 322 323 324 324 323 323 324 324 324 324 324 324 324 323 322 324 325 324 322 322 321 320 317 314 313 313 314 311 308 305 306 308 309 307 306 304 305 305 307 309 312 313 313 313 313 312 312 311 311 311 311 309 308 307 307 308 308 308 310 312 312 312 313 313 314
320 319 318 318 319 319 320 322 322 322 321 320 320 319 319 319 319 319 319 319 319 320 322 323 323 322 322 322 323 323 323 324 325 323 321 322 324 322 321 321 321 320 318 316 313 311 310 307 305 304 304 304 302 300 299 299 300 300 300 300 302 305 308 310 311 311 309 308 307 307 307 308 308 308 307 308 309 309 309 310 310 311 311 312 313
319 319 318 318 319 319 321 322 322 321 321 320 320 319 318 319 319 318 318 318 317 318 320 321 321 321 321 321 321 322 322 321 323 323 321 322 323 321 321 321 320 319 318 316 315 313 309 305 304 304 303 301 300 300 301 302 302 302 301 300 298 298 299 300 304 307 308 307 305 303 304 306 307 308 308 308 308 308 309 309 309 310 310 311 312
318 318 318 318 319 319 321 322 321 321 320 320 320 319 318 318 318 318 317 317 317 317 318 319 319 321 321 320 319 319 320 320 321 323 322 322 322 321 320 320 318 317 316 316 316 314 309 305 305 305 303 301 301 302 303 303 303 303 302 301 300 299 297 296 295 297 301 304 306 305 304 306 307 307 308 307 307 307 307 307 308 308 309 309 310
316 316 317 318 318 319 321 322 322 320 319 319 319 318 317 317 317 316 316 316 316 316 316 317 318 319 320 320 318 318 319 318 320 322 322 322 322 321 320 319 319 317 315 315 315 314 310 307 305 305 304 303 302 303 304 303 303 303 302 301 300 299 298 297 294 293 294 298 303 305 306 306 306 307 306 306 306 305 304 304 304 305 306 307 309
314 314 316 318 318 319 321 322 321 320 319 318 318 317 317 316 315 315 314 314 315 315 315 316 316 317 317 318 317 316 317 318 320 322 323 322 321 321 320 318 318 317 316 315 312 312 312 309 305 304 304 304 303 303 303 303 302 302 301 301 300 299 298 297 295 293 293 294 298 303 305 305 306 305 305 305 305 303 301 301 301 301 302 303 306
314 313 315 318 318 318 320 321 320 319 318 318 317 316 316 315 314 314 313 314 314 314 314 314 315 315 315 315 315 315 316 318 320 322 323 323 322 321 320 318 318 316 315 314 310 309 311 309 305 304 304 303 303 303 303 302 301 301 301 300 299 298 297 296 294 294 295 295 297 300 303 304 304 304 304 304 303 301 301 301 301 300 300 300 301
314 313 315 318 318 318 320 320 319 318 318 317 316 315 314 314 313 313 313 313 314 313 313 313 314 314 314 314 314 314 315 316 319 320 321 323 322 321 320 320 318 315 314 313 310 308 310 308 304 304 304 303 303 302 302 301 301 301 300 299 298 298 297 295 295 295 296 297 297 299 300 301 302 303 303 302 301 301 302 302 300 298 298 298 298
313 314 316 318 318 317 319 319 318 317 317 315 314 314 313 313 313 313 312 313 313 313 313 312 313 312 312 313 312 312 313 313 315 317 317 320 322 322 321 321 318 315 314 313 309 307 309 307 304 304 304 303 303 302 302 301 300 300 300 299 298 297 296 295 295 296 297 297 298 298 298 300 300 301 302 302 301 301 301 300 297 296 297 297 297
313 314 317 318 318 317 318 318 317 316 315 314 313 313 312 312 312 312 312 312 313 313 312 312 312 311 311 311 310 310 310 310 311 312 313 314 317 320 322 321 317 314 313 312 308 307 308 305 304 304 304 303 303 302 302 301 300 300 299 298 297 297 296 295 295 296 297 297 297 297 298 298 299 300 301 301 301 301 299 296 294 294 295 296 296
313 314 316 317 318 317 318 318 316 315 314 313 312 311 311 311 312 312 312 312 312 312 312 312 311 310 309 309 309 308 308 308 308 308 309 311 312 316 320 320 317 313 312 312 310 308 307 305 304 304 304 304 303 302 303 301 300 300 299 298 297 296 295 295 295 296 297 297 297 297 297 298 299 301 301 301 301 300 297 293 292 292 294 295 296
313 314 315 316 316 316 317 317 315 314 313 312 311 310 310 310 310 310 310 310 310 311 312 311 310 309 309 308 308 307 306 307 306 307 309 311 312 315 317 317 315 312 311 312 311 308 306 304 304 305 304 304 304 303 303 302 301 300 299 298 297 296 295 295 295 296 296 296 296 296 297 298 299 301 301 301 300 298 295 292 291 291 293 294 295
313 313 315 315 314 315 315 315 314 313 311 310 310 310 309 309 309 308 308 307 306 307 310 311 310 309 309 308 307 306 306 306 306 307 310 312 312 314 314 313 312 310 310 310 311 309 307 304 304 305 305 305 304 304 304 303 302 300 298 298 296 295 295 295 295 295 295 295 295 296 296 297 299 300 300 299 298 296 294 292 291 291 291 293 294
312 313 314 314 314 314 314 314 313 312 310 309 309 309 309 309 308 308 307 303 300 302 308 310 309 308 308 308 307 305 305 305 305 307 309 309 309 310 310 309 308 309 309 309 309 310 308 305 303 304 304 305 305 305 304 303 302 300 299 298 296 295 295 295 295 295 295 295 295 295 296 297 298 298 298 297 297 296 294 292 291 290 290 291 293
312 312 313 314 313 313 313 313 312 310 309 308 308 308 308 308 308 306 302 298 298 301 306 309 309 308 307 307 307 305 305 305 304 306 307 307 306 307 307 307 307 307 307 308 308 309 308 305 302 300 300 302 303 303 304 303 302 301 300 299 297 296 296 296 296 296 295 295 294 294 295 296 297 298 297 297 297 295 294 292 291 290 289 289 292
312 312 312 313 313 312 312 312 311 309 309 308 307 307 307 307 306 300 296 297 301 303 306 308 308 307 307 306 306 305 304 304 304 304 305 305 305 305 305 305 305 305 306 306 307 307 305 302 300 298 298 299 301 302 302 303 302 301 300 300 299 298 297 298 299 298 296 294 294 294 294 295 296 298 298 297 297 295 294 293 292 291 289 288 290
312 312 311 312 312 312 312 311 310 309 308 308 307 307 307 307 302 295 294 298 302 304 305 306 306 306 306 305 305 304 303 303 303 303 304 304 304 304 303 303 303 303 304 304 305 304 303 300 298 297 298 298 298 298 299 299 299 299 300 300 300 299 299 299 300 299 296 294 294 293 293 293 295 297 298 297 296 295 294 293 293 292 290 288 288
312 312 311 312 312 311 311 310 309 309 308 308 308 307 307 307 301 294 293 296 298 300 301 302 303 303 303 303 303 303 302 302 302 302 302 303 303 303 302 302 302 302 302 303 303 303 301 299 298 298 298 298 298 297 297 298 298 298 299 299 299 299 300 300 299 297 295 294 294 293 293 293 294 296 298 297 296 295 294 293 293 293 291 288 287
312 312 311 312 312 311 311 310 309 308 308 308 308 307 307 307 302 294 293 294 294 295 296 297 299 301 301 302 302 301 301 302 302 302 302 301 301 301 301 301 301 301 301 301 302 302 301 299 298 298 299 299 299 300 299 298 297 298 298 298 298 299 300 299 298 296 295 294 294 293 293 293 294 296 297 296 295 295 293 293 293 293 292 289 287
312 312 311 311 312 310 310 310 308 308 308 308 308 307 307 307 303 295 292 293 293 293 293 294 295 297 299 301 301 301 301 301 301 301 301 300 300 300 300 300 299 299 299 299 300 300 301 300 300 299 300 300 300 301 300 297 296 297 298 297 298 299 299 297 296 296 295 294 294 293 293 294 295 296 296 295 294 294 293 293 294 294 293 290 287
313 312 310 310 311 310 309 309 308 308 308 308 308 307 306 306 303 296 292 292 293 292 292 292 292 293 294 296 297 298 299 300 300 300 300 300 300 300 300 300 299 299 298 298 297 297 298 299 300 300 301 301 301 301 299 295 294 296 297 298 299 299 298 296 296 296 295 294 293 293 293 294 295 296 295 294 294 294 293 294 294 294 292 290 287
313 312 310 310 311 311 310 309 309 308 308 308 307 307 307 305 303 298 294 293 293 294 293 293 292 292 291 292 292 293 294 295 296 297 298 299 299 298 298 297 296 296 296 296 295 294 295 297 299 300 300 301 301 300 298 295 294 295 297 298 298 298 298 296 296 296 295 293 293 293 292 293 294 295 295 294 294 295 294 294 294 294 292 290 287
313 312 310 310 311 311 310 309 309 308 308 308 307 307 307 305 302 299 295 293 294 295 295 294 294 294 293 291 291 291 291 291 291 292 293 294 294 293 293 292 292 291 292 292 293 293 295 297 298 299 299 300 301 301 300 298 296 296 297 297 297 298 298 297 296 296 295 294 293 293 292 292 294 295 294 294 295 295 294 294 294 293 292 290 288
313 312 310 310 310 310 310 310 309 308 308 308 307 307 307 304 301 299 297 295 297 297 296 296 296 297 295 293 291 291 291 290 290 290 290 290 290 290 290 290 290 290 291 292 294 295 296 297 298 298 298 299 299 300 300 300 297 296 296 297 297 298 298 297 297 296 295 294 293 293 292 292 293 294 294 294 295 295 294 294 294 293 291 290 288
313 312 311 311 310 311 310 310 309 308 308 307 306 306 306 304 300 298 297 298 300 299 297 296 297 299 298 295 293 292 292 292 291 290 290 290 290 290 289 289 290 290 290 291 292 293 294 295 296 297 298 298 298 298 299 300 298 296 296 296 296 297 297 297 297 297 296 294 294 293 292 291 292 293 293 294 294 294 294 294 294 293 291 290 289
313 312 311 311 311 311 310 310 310 308 308 307 306 305 306 305 300 298 298 300 301 301 298 297 298 300 300 297 295 294 294 295 294 291 290 290 290 290 290 290 291 291 292 292 292 291 291 291 292 293 295 296 297 297 298 298 297 295 295 296 296 296 296 296 296 296 295 294 293 293 293 291 291 292 292 292 293 293 294 294 294 293 291 290 289
314 312 311 311 311 311 310 310 310 309 308 308 307 305 305 305 302 299 299 301 302 301 299 298 299 300 300 298 296 296 296 296 296 294 292 291 291 291 291 292 292 293 293 293 293 292 291 290 290 290 292 294 296 297 298 298 296 295 295 296 295 295 295 296 296 295 294 293 293 293 293 291 291 291 291 291 292 292 292 293 294 293 291 289 289
314 313 312 311 311 310 310 310 310 309 308 308 307 305 305 305 303 300 299 301 303 302 300 299 299 300 301 299 297 296 296 297 297 296 295 294 293 292 292 293 293 294 294 294 293 293 292 291 290 291 292 294 295 296 297 297 295 294 295 295 295 294 294 295 295 295 295 294 293 293 293 292 291 292 292 291 291 291 291 293 294 293 290 289 289
Wind_Speed
10 10 9 8 8 8 6 5 4 4 4 4 4 5 5 5 5 5 5 4 3 2 3 4 5 6 7 7 7 6 6 7 7 8 9 10 10 8 8 9 9 8 6 5 6 7 7 8 10 10 10 10 10 10 10 10 10 11 13 13 13 13 12 12 13 12 11 10 9 9 9 9 10 10 10 11 11 11 11 12 12 13 13 14 14
10 9 8 8 8 8 7 7 5 5 3 2 2 4 5 5 6 6 6 6 5 4 4 4 5 6 7 8 7 7 6 7 8 8 9 10 9 8 8 8 8 7 6 6 6 7 9 10 10 9 10 11 11 11 11 11 11 11 12 14 14 14 13 13 14 14 13 12 12 11 10 11 11 12 12 12 12 12 13 13 13 14 14 15 15
9 9 9 9 8 8 8 7 6 6 4 3 2 2 3 4 5 5 5 5 6 7 6 5 4 5 6 6 6 7 7 7 7 9 9 9 9 9 8 7 8 7 7 7 6 5 7 10 10 10 11 12 12 12 12 12 13 13 14 15 15 15 15 15 16 15 15 14 14 13 13 13 13 13 13 13 13 13 13 14 15 15 16 17 17
10 10 10 10 9 8 7 6 6 5 4 3 3 1 1 2 3 3 3 4 5 6 6 5 5 6 6 5 5 5 6 6 7 8 8 8 8 8 7 7 8 7 7 7 7 6 7 9 10 11 12 13 13 13 13 13 14 15 15 16 16 16 17 17 17 17 16 15 14 14 14 14 14 13 13 13 13 13 14 15 16 17 18 19 19
9 10 10 9 9 7 6 5 5 4 4 2 2 2 1 1 2 2 3 4 4 5 5 4 4 5 5 5 5 5 5 5 5 5 6 7 6 6 6 6 7 7 7 7 7 7 7 9 10 12 12 13 13 13 14 14 15 15 16 16 16 16 17 18 19 18 17 16 14 13 13 13 14 14 14 14 14 15 16 17 18 19 19 19 19
8 8 8 9 8 6 5 5 5 5 4 3 2 1 2 2 2 2 3 3 3 3 3 3 3 4 3 4 4 4 4 4 4 3 4 5 5 5 5 5 5 5 6 6 6 6 7 8 9 10 11 12 13 14 15 16 16 16 17 17 17 16 17 18 19 19 17 17 15 15 14 14 15 16 16 17 18 18 18 18 19 20 20 19 19
8 8 9 10 10 7 6 6 6 6 5 4 3 2 2 2 1 1 2 2 3 3 3 2 2 2 2 2 3 3 3 3 2 2 3 3 3 4 4 4 4 4 4 5 5 5 6 7 8 9 11 12 13 14 15 16 16 16 17 17 17 17 18 19 20 19 18 17 16 15 16 16 16 16 17 18 19 18 18 19 19 20 19 19 20
10 9 9 11 11 10 9 7 6 5 5 4 3 3 3 3 2 2 2 3 3 3 3 2 2 3 3 3 4 4 4 4 3 2 3 2 1 3 4 3 2 2 2 2 3 3 4 6 7 7 9 10 11 12 13 13 13 14 15 16 16 17 17 18 19 19 19 19 18 18 19 19 18 16 16 17 18 17 17 18 18 19 19 19 20
11 11 10 10 10 11 10 8 7 5 4 4 3 3 2 2 3 3 4 4 4 4 4 4 4 4 4 4 5 5 4 4 3 3 3 1 1 3 2 1 1 1 1 1 1 1 2 4 5 6 7 9 10 11 11 11 12 13 14 15 15 16 17 17 16 16 17 18 18 20 20 20 18 17 17 17 18 17 16 17 18 18 18 18 19
12 11 9 9 9 10 9 9 8 6 5 5 4 3 3 3 4 4 5 5 5 5 5 5 4 4 4 3 3 2 2 1 1 2 2 2 3 3 3 3 4 4 4 3 3 3 3 3 4 6 6 6 7 7 8 9 10 10 11 11 12 13 15 16 15 13 13 14 16 17 17 17 16 15 15 16 17 17 16 17 16 16 16 16 17
12 11 10 10 10 10 9 9 9 8 6 5 4 4 4 4 4 5 5 5 6 6 5 3 4 6 5 5 5 5 5 4 4 5 5 5 5 5 5 5 5 5 4 3 2 1 1 2 3 4 5 6 7 7 7 8 10 11 11 10 10 9 10 12 12 11 10 11 13 14 14 14 12 12 13 14 14 13 14 15 14 14 14 15 15
12 12 11 11 11 11 10 10 9 9 8 7 6 5 4 4 4 4 5 5 5 5 5 2 7 10 10 10 10 10 10 9 9 9 8 7 7 6 7 7 7 6 5 4 4 4 5 5 5 6 7 9 10 10 10 9 10 11 12 12 11 10 8 6 8 8 7 8 10 12 12 11 11 10 10 11 10 10 11 12 13 12 12 13 13
13 13 13 13 13 12 12 12 11 10 9 9 8 7 6 5 4 4 4 5 5 5 5 2 5 10 11 13 14 14 14 13 13 12 10 9 8 8 8 8 8 8 7 7 7 7 7 7 8 9 11 13 13 13 13 13 14 14 14 13 12 11 10 7 5 3 3 4 6 8 10 10 9 8 9 8 8 8 9 10 11 11 11 11 12
14 14 14 14 14 14 14 14 14 12 11 9 8 8 7 6 5 5 5 5 6 7 6 5 1 5 6 7 10 13 15 16 17 15 12 10 10 10 10 10 11 11 9 9 10 11 11 12 12 13 13 14 15 15 16 16 16 17 17 15 12 11 11 9 8 6 4 4 5 6 7 7 6 6 6 5 4 6 8 10 10 11 12 13 13
13 13 13 14 14 14 14 14 14 14 13 12 11 10 8 7 6 6 6 6 7 7 7 6 2 2 4 2 2 4 7 11 15 15 13 12 12 12 11 12 11 10 9 11 12 13 13 14 14 15 15 15 14 14 16 17 17 17 17 16 14 12 12 11 10 9 7 6 6 7 7 6 5 6 7 7 7 8 9 9 9 10 12 13 13
13 13 13 13 13 13 13 12 12 13 13 13 13 12 11 9 8 7 7 7 6 6 7 6 3 1 2 2 1 1 1 3 7 12 12 12 13 13 13 12 12 13 13 15 15 14 13 12 12 12 14 15 16 15 16 17 17 16 16 16 16 14 13 13 12 11 11 10 9 8 7 9 9 9 10 10 9 9 9 9 9 9 10 11 11
12 12 12 12 12 12 11 11 11 11 11 12 12 12 11 11 10 9 9 9 7 6 6 6 5 2 2 1 1 1 0 1 2 7 9 11 13 14 16 16 17 18 19 18 17 15 14 13 13 12 11 13 13 14 15 16 17 17 17 17 16 16 15 15 15 14 15 15 15 13 11 12 10 10 10 10 9 9 9 10 10 10 11 12 12
12 12 12 12 12 11 10 10 11 11 11 11 10 10 10 11 11 10 10 9 9 8 7 7 5 4 3 2 1 1 3 4 1 2 6 9 11 13 16 19 20 21 21 20 19 18 17 15 14 12 11 11 12 13 16 17 17 18 17 17 17 17 17 17 16 16 16 16 15 14 15 15 12 10 10 9 9 9 9 10 11 12 13 13 13
11 12 12 12 12 11 10 10 10 10 10 11 11 11 10 10 10 10 10 9 9 9 8 8 6 4 5 3 3 2 7 6 3 3 3 5 9 12 15 18 21 22 22 21 21 20 20 18 16 14 13 14 16 17 19 19 19 19 19 17 17 18 18 17 17 17 16 15 14 14 15 15 13 11 11 10 11 11 11 11 11 12 13 14 14
10 11 11 11 11 10 10 10 9 10 10 11 11 11 11 10 10 10 10 10 10 9 8 8 7 6 5 4 4 1 7 5 4 7 5 3 5 9 15 20 22 22 22 21 21 21 21 21 20 17 16 16 16 17 19 19 19 20 19 17 17 18 18 18 18 17 16 15 15 15 14 13 13 13 12 12 12 13 12 12 12 12 13 14 15
10 11 10 10 10 9 9 8 8 8 9 9 9 10 10 10 10 10 10 10 10 10 9 8 7 6 5 4 4 2 1 1 2 4 4 4 4 5 10 16 18 20 21 21 21 22 22 23 22 20 18 17 17 17 18 19 19 20 19 17 16 16 17 17 17 18 17 15 15 15 15 14 14 14 14 14 14 13 13 13 13 13 13 14 15
9 9 9 9 9 9 8 8 7 7 7 7 8 9 9 10 10 9 9 9 9 9 8 8 7 6 6 5 4 4 1 0 1 3 5 3 4 5 8 10 11 13 18 21 21 20 21 21 21 20 18 17 16 16 16 17 17 17 18 17 16 16 17 17 18 18 18 17 16 16 16 16 15 15 15 15 14 14 13 14 14 14 14 14 15
6 7 8 8 8 8 8 7 7 7 6 7 8 9 9 9 9 9 9 9 8 8 7 7 7 7 6 6 6 4 3 2 5 6 5 4 5 4 6 12 13 12 15 19 21 20 19 19 19 19 18 17 16 15 15 15 15 14 15 18 20 21 21 21 20 20 19 19 18 18 17 17 16 16 16 15 14 14 14 15 15 16 16 15 15
6 6 7 7 7 7 8 7 7 7 6 7 8 8 9 9 10 10 10 9 9 9 8 7 7 7 7 7 7 6 5 3 4 10 10 9 8 5 4 9 11 12 13 16 20 21 19 18 18 18 18 17 18 18 18 18 19 18 17 20 22 23 23 23 22 22 21 21 21 20 20 20 19 18 17 18 18 17 16 16 16 16 17 16 16
6 6 7 7 6 7 7 6 6 6 6 6 7 8 8 9 10 10 10 10 10 9 8 7 7 7 7 6 6 6 6 5 2 5 11 12 10 6 5 8 8 9 11 12 16 19 19 18 18 18 19 19 20 22 23 24 25 24 24 24 24 23 23 23 23 23 23 23 22 22 22 21 21 20 20 20 21 20 18 18 17 17 17 17 17
5 6 7 6 6 7 7 5 4 5 5 6 7 8 9 9 8 9 10 10 10 9 7 6 6 6 5 5 5 6 6 6 5 1 9 14 14 9 7 9 8 8 8 8 11 13 15 17 18 18 19 21 22 23 24 25 26 25 25 26 26 25 24 24 23 24 24 24 24 23 22 22 22 22 22 22 22 21 20 19 18 17 17 18 18
5 6 6 6 5 6 6 5 4 5 6 6 6 7 8 8 8 8 9 9 9 8 6 5 5 4 4 4 5 5 5 5 4 1 8 15 16 14 12 8 5 4 5 8 10 10 12 16 17 18 19 19 21 22 23 23 24 23 24 25 26 26 25 25 24 24 24 25 25 24 23 23 23 24 24 24 23 23 23 22 21 20 20 20 20
6 7 7 6 5 6 6 5 5 5 6 6 6 7 8 8 9 10 10 9 8 7 5 4 3 3 2 3 4 5 5 5 3 2 8 13 15 16 16 10 5 4 3 5 7 8 9 12 15 16 17 18 19 20 20 22 23 22 23 25 26 26 25 25 26 25 25 25 25 25 24 24 24 24 25 25 24 25 25 25 25 24 24 22 21
8 8 7 5 5 6 5 4 4 5 5 5 6 7 9 10 10 10 10 9 7 6 5 4 3 2 2 2 3 3 4 5 4 2 7 12 15 15 13 11 9 6 3 2 3 3 5 8 10 13 15 16 17 18 19 21 22 21 23 24 25 26 26 26 27 27 27 26 26 26 25 24 23 23 24 24 24 26 27 27 27 26 26 25 23
9 9 6 4 5 5 4 3 4 5 4 5 6 8 9 10 10 9 9 8 7 5 4 4 3 2 2 2 2 2 3 4 4 1 4 10 13 13 12 11 9 7 6 5 2 4 7 9 11 13 15 15 16 17 19 20 20 20 22 23 24 25 26 27 28 28 28 28 28 28 26 24 22 22 23 24 25 26 27 28 28 27 27 26 25
8 8 5 4 4 3 3 3 3 4 4 5 6 9 10 10 9 8 8 7 6 5 5 4 4 3 3 3 2 1 2 2 2 2 1 5 10 13 13 12 9 8 10 10 4 3 8 10 13 16 15 15 15 16 18 19 19 19 20 22 23 24 25 27 28 28 29 29 29 29 27 25 23 22 22 23 24 26 27 28 28 28 27 26 26
7 6 4 4 3 2 2 3 3 3 4 5 7 9 10 10 8 7 6 6 6 5 5 5 5 4 4 3 1 1 1 2 2 2 2 1 7 11 13 12 9 8 10 13 9 6 9 14 17 16 15 14 14 15 17 18 17 18 19 21 22 23 25 27 27 27 28 28 28 28 28 27 25 23 22 21 22 24 27 28 29 29 28 28 27
6 5 5 4 3 2 2 3 3 3 4 6 7 9 10 9 7 6 6 6 6 5 5 6 5 5 4 3 2 2 2 3 4 3 3 3 4 8 12 13 10 8 10 14 15 10 11 16 17 16 15 14 14 14 14 16 16 16 18 20 21 23 24 25 26 25 25 26 27 27 27 26 25 24 22 21 21 23 26 28 29 29 29 29 29
5 5 5 4 4 3 3 3 3 3 4 6 7 8 8 8 7 6 6 6 6 6 5 6 5 5 5 3 2 3 3 4 5 6 5 4 4 6 10 12 10 10 11 14 17 14 12 14 16 16 13 12 13 13 12 14 15 15 16 19 20 21 23 24 24 24 23 23 24 25 26 26 25 25 23 22 21 23 27 29 29 29 30 30 30
5 5 5 4 3 3 3 3 3 3 5 6 7 7 7 6 6 7 7 7 7 6 5 5 4 5 5 4 3 3 4 5 7 7 6 3 2 5 9 11 11 12 12 12 15 16 15 14 14 14 12 11 13 12 11 12 13 13 15 18 19 20 22 23 23 22 22 21 22 23 24 25 25 25 24 23 23 25 27 29 30 31 31 31 31
5 5 5 4 3 3 2 3 3 4 5 5 6 6 6 6 7 9 10 10 9 7 5 3 3 3 4 4 4 4 4 6 7 7 5 1 3 7 10 12 13 13 12 11 13 16 19 16 13 13 12 11 12 11 10 11 12 12 14 16 17 19 21 21 22 22 21 20 20 21 22 23 24 25 25 24 24 25 28 29 30 31 31 31 31
5 5 5 5 3 2 3 3 4 4 4 5 6 6 6 7 8 10 12 11 9 6 3 2 1 2 4 4 4 4 4 4 5 5 3 3 7 9 12 12 12 11 11 10 11 16 20 19 15 13 12 12 12 11 10 10 12 12 13 14 16 18 19 19 20 20 19 19 19 20 21 22 23 23 24 25 25 26 28 30 31 31 31 31 31
5 5 6 6 5 4 4 5 5 4 3 4 5 6 6 7 10 11 11 8 5 2 2 1 0 1 3 3 4 4 3 3 4 4 3 5 8 10 11 11 10 10 9 10 11 15 19 19 16 14 13 12 12 12 11 10 11 12 13 12 14 15 17 17 18 18 17 18 19 19 20 20 21 22 23 24 25 26 28 30 31 32 31 30 30
6 6 6 7 6 5 6 7 6 4 3 4 5 5 6 8 10 9 7 5 3 2 2 2 1 1 2 2 3 4 3 2 3 4 4 5 7 8 8 8 8 9 9 11 12 15 17 18 16 15 14 13 12 12 12 10 9 10 11 12 12 12 12 12 13 14 14 16 18 19 19 19 19 20 21 22 24 25 27 30 31 32 32 30 29
7 6 6 7 6 5 6 7 7 5 3 4 4 4 5 7 8 6 4 4 3 4 4 3 3 2 2 2 3 4 3 2 3 4 4 5 5 6 7 7 7 8 10 11 13 14 16 17 16 15 14 13 13 13 12 11 10 9 9 11 11 10 8 7 9 11 12 14 16 18 18 18 18 18 19 21 23 24 26 28 31 32 33 32 29
8 7 6 7 6 6 7 8 8 6 4 4 3 3 4 6 6 4 2 3 4 5 5 5 5 4 4 4 5 4 4 4 3 3 4 4 4 5 7 7 7 7 9 11 12 13 15 16 15 14 14 14 14 14 12 11 10 9 9 11 12 10 9 9 10 11 12 13 16 18 18 18 18 18 19 21 23 23 25 28 30 32 33 32 30
10 8 7 7 7 6 7 8 9 7 5 5 4 2 2 4 4 2 1 4 5 5 6 6 7 7 7 7 7 7 6 5 5 4 4 5 4 5 6 6 4 4 6 9 11 12 13 15 15 15 15 14 13 13 11 10 10 11 11 12 13 14 14 13 13 13 13 13 15 18 18 17 17 18 20 22 22 22 25 28 28 30 32 32 30
12 10 9 9 9 8 8 9 9 7 6 6 5 4 2 1 2 1 2 4 5 6 6 7 8 8 8 8 8 7 7 6 6 6 6 6 6 6 6 5 3 2 2 5 8 10 12 13 14 15 15 14 12 12 11 10 11 12 12 12 15 16 16 15 12 10 12 13 15 18 18 17 17 18 20 22 21 22 24 25 25 27 30 31 30
14 13 12 11 11 10 9 9 9 7 6 7 7 6 5 3 1 2 4 4 4 5 5 6 8 8 8 8 8 7 7 6 5 5 6 6 6 6 5 4 3 2 3 3 4 7 9 12 14 13 13 13 13 12 10 9 11 13 13 13 13 14 15 15 12 10 11 12 14 18 18 16 16 18 20 21 20 20 21 22 23 25 28 30 29
17 15 13 13 13 12 12 11 10 8 7 7 8 8 7 6 4 4 5 5 3 3 4 6 7 8 8 8 8 8 8 6 5 4 4 4 4 4 4 4 3 3 3 3 3 3 5 9 13 13 12 12 12 11 10 9 9 12 14 13 12 13 15 16 14 13 13 12 14 18 18 15 15 17 19 19 17 16 19 20 21 24 27 29 29
20 18 16 15 15 14 14 13 12 10 9 8 8 9 10 9 7 6 6 6 4 2 3 5 6 7 7 7 7 9 9 8 6 4 4 4 4 4 4 5 5 4 4 4 4 4 4 6 11 12 11 10 10 10 10 9 8 9 12 13 12 12 14 15 15 14 13 12 12 15 15 13 14 16 17 17 14 14 16 18 20 23 25 28 28
22 20 18 17 17 16 16 15 14 12 11 9 9 10 12 11 10 9 8 7 5 4 4 4 5 6 6 6 7 9 9 9 8 6 5 5 6 7 8 9 9 9 9 9 8 8 8 8 9 10 10 9 9 9 9 9 8 7 8 11 12 12 14 15 13 12 12 11 8 9 10 11 13 16 16 13 12 12 14 16 19 21 24 26 27
23 21 20 19 18 17 18 17 16 15 13 11 10 12 14 14 14 13 11 9 7 5 5 5 5 6 6 5 5 7 9 9 8 6 5 5 6 9 12 13 13 13 13 13 11 10 9 8 8 8 8 8 8 8 9 9 9 8 10 12 13 12 13 14 11 10 11 9 6 8 12 12 12 15 15 11 10 11 12 14 17 20 22 25 26
25 24 22 20 18 18 19 19 18 17 15 12 11 12 15 17 17 16 14 12 9 7 6 6 5 5 5 4 4 5 6 8 8 6 5 5 7 11 13 14 15 15 15 14 13 11 10 8 6 6 7 8 7 7 7 9 10 10 10 12 12 11 13 12 10 9 10 10 9 10 13 13 12 14 15 12 11 11 10 11 14 17 19 23 25
27 26 23 20 19 19 20 20 19 18 17 14 12 13 17 19 19 19 17 15 12 10 9 8 7 6 6 6 5 4 4 6 7 7 6 5 6 10 12 14 14 14 13 13 11 11 10 9 7 5 5 7 7 6 7 9 11 11 8 7 7 9 11 11 11 11 11 12 13 11 12 13 12 12 12 11 12 13 10 8 10 13 17 20 23
26 25 23 21 20 20 21 20 20 19 18 16 14 14 17 20 21 21 20 18 16 14 12 11 10 9 8 9 8 6 5 5 6 6 6 5 5 7 10 11 12 11 10 10 9 8 8 8 7 6 6 6 7 7 8 9 12 11 6 2 3 6 8 11 15 14 9 9 12 11 10 12 10 6 5 5 7 10 11 9 9 11 15 19 21
Wind_Direction
60 58 53 49 43 34 24 22 28 38 45 48 55 68 73 68 62 60 58 46 27 353 323 330 337 339 335 335 336 329 315 306 302 295 299 306 310 310 296 281 278 279 277 282 274 259 254 249 248 250 249 255 261 262 263 268 276 279 285 289 285 283 280 284 295 299 300 302 300 298 298 300 300 302 306 307 311 312 310 309 308 308 308 308 308
51 44 38 33 30 25 21 16 5 3 17 28 56 85 91 82 79 75 66 57 47 31 6 351 345 341 332 330 330 330 327 315 306 300 300 305 309 313 309 292 285 287 284 286 283 265 261 263 261 259 260 260 260 263 265 268 273 276 280 285 285 287 288 289 294 296 295 295 296 297 298 301 303 304 306 308 311 311 310 309 308 309 308 310 310
34 25 18 11 6 4 6 8 3 356 350 338 336 84 98 99 101 89 69 53 41 34 27 18 5 356 345 339 333 327 326 323 319 315 314 316 316 317 317 303 286 282 283 286 291 274 255 259 263 260 261 261 263 265 266 267 271 273 275 280 284 287 289 290 292 294 293 291 292 295 299 301 302 303 305 307 308 307 306 306 307 308 308 309 310
15 9 4 360 354 349 349 356 1 360 349 324 298 299 69 89 103 89 60 40 28 25 23 24 21 11 5 359 349 337 330 324 320 325 331 333 327 321 320 309 294 289 294 297 302 290 259 254 259 261 261 262 266 268 271 273 273 274 275 277 280 282 284 286 288 290 292 294 295 296 298 298 299 300 302 303 303 303 304 305 307 308 308 307 307
12 5 0 357 351 347 348 353 2 8 4 338 287 279 311 1 22 28 30 22 12 8 3 358 352 349 356 3 5 2 352 338 332 339 336 329 331 333 333 325 312 304 302 300 302 300 285 271 268 271 272 273 273 272 273 276 277 278 278 277 276 276 278 282 285 287 292 295 296 299 300 301 302 301 302 302 301 301 303 305 306 305 305 305 306
23 16 10 7 2 1 5 7 14 21 20 14 3 317 306 319 332 353 19 18 3 349 336 326 323 328 345 0 1 0 354 346 350 346 314 315 338 353 359 350 337 325 316 310 306 304 300 292 285 284 285 288 289 286 285 284 283 283 283 285 284 281 279 278 279 283 287 291 293 297 299 298 296 295 297 298 298 300 301 302 304 305 306 307 306
31 25 19 19 18 18 15 14 19 25 30 29 29 32 22 10 1 22 35 30 7 343 323 309 313 340 354 346 323 321 322 319 317 310 298 319 4 20 23 9 355 342 326 328 325 317 313 309 307 305 303 304 304 302 300 296 291 288 288 289 290 288 284 280 279 278 280 283 287 289 289 288 284 287 294 295 295 296 297 299 301 303 305 304 301
32 27 20 20 22 19 13 8 9 16 26 27 31 41 48 42 31 29 27 29 14 349 331 326 350 0 345 317 303 301 298 293 284 269 266 275 47 58 47 30 7 330 310 343 351 331 311 303 305 306 303 302 301 301 301 299 296 293 290 289 290 288 284 280 279 277 278 279 279 278 280 283 284 289 294 294 294 294 295 297 300 303 303 304 303
28 26 20 16 15 14 10 5 360 355 358 1 9 27 40 26 8 1 358 1 358 345 335 341 3 9 346 320 310 301 291 286 278 258 244 240 108 89 75 72 109 170 176 136 141 190 230 254 272 282 285 286 290 293 294 294 294 293 290 288 287 285 281 282 280 276 277 279 278 278 282 286 287 291 293 293 294 294 296 298 302 307 309 310 311
23 21 18 13 12 14 13 10 7 357 345 335 335 337 332 328 324 324 328 327 327 327 328 342 25 40 21 358 344 325 305 271 214 188 155 139 131 126 124 125 133 150 158 162 176 191 212 243 272 289 304 315 319 319 320 322 324 322 315 306 298 288 278 278 280 277 273 276 280 285 291 294 293 294 296 295 294 295 300 304 308 312 312 312 312
23 20 16 13 15 20 20 19 18 15 4 342 327 316 309 307 303 302 303 304 308 313 317 343 68 79 77 77 72 76 81 93 115 121 120 121 125 126 126 127 133 142 147 150 157 151 19 359 341 340 1 16 15 16 16 10 6 3 356 345 334 319 292 277 277 276 268 270 281 292 300 305 307 306 305 303 302 303 306 311 313 314 312 310 311
24 23 20 17 16 17 17 18 18 18 16 10 2 350 336 320 308 301 297 298 298 300 309 346 96 95 90 88 84 83 84 87 93 98 104 109 114 121 125 126 125 120 109 99 85 69 54 41 34 29 32 35 34 34 38 37 30 21 14 10 5 0 347 311 286 276 269 275 289 301 309 314 314 313 315 317 318 316 313 317 320 318 316 314 315
19 19 18 16 15 12 11 12 11 12 13 13 10 4 0 349 333 319 313 314 311 312 318 321 112 104 90 81 79 78 78 80 82 83 88 95 101 107 110 110 103 93 87 81 71 64 55 48 45 45 47 48 46 44 46 46 41 36 30 27 24 19 17 9 343 321 301 300 309 316 320 322 322 327 332 329 325 323 326 332 332 330 330 330 330
18 18 18 15 13 10 8 7 6 6 7 6 1 356 359 360 356 348 339 333 330 329 329 322 113 124 112 85 72 71 72 72 71 70 71 74 79 84 84 82 79 77 78 75 66 59 55 56 58 60 60 57 52 48 49 48 44 42 39 38 37 32 32 34 32 33 27 358 344 344 346 345 347 358 0 0 4 359 358 356 349 345 343 339 335
22 20 19 17 14 11 9 7 3 2 2 3 3 359 356 358 358 354 343 337 334 326 325 325 322 138 137 121 60 67 62 57 57 58 60 63 66 69 68 68 68 70 71 68 66 65 65 68 69 66 63 61 60 56 51 48 45 45 43 41 44 43 43 43 42 43 39 22 12 15 27 40 50 62 61 56 45 25 12 7 1 356 346 336 332
20 18 17 15 13 11 10 9 6 2 360 0 3 3 1 357 353 346 338 333 330 319 317 323 317 256 149 112 88 112 48 29 46 51 56 60 60 64 66 67 68 68 67 67 67 67 67 68 65 62 63 62 62 60 56 50 43 45 45 44 47 49 49 50 51 53 51 44 41 45 66 81 77 70 63 49 37 25 17 13 7 1 352 345 346
13 12 12 10 9 9 7 7 6 3 2 1 1 1 1 0 358 353 345 335 328 320 315 323 330 304 228 165 109 93 192 189 78 52 55 60 61 66 69 72 73 72 71 70 69 67 64 63 61 64 65 58 55 56 55 49 42 46 49 47 49 53 54 58 58 59 60 60 61 64 73 74 60 50 49 42 34 25 20 16 8 7 9 8 7
5 5 5 4 5 7 7 6 5 4 4 4 3 4 3 3 3 0 355 345 333 327 319 316 329 345 324 267 252 248 184 164 132 62 68 73 74 72 72 75 75 73 70 69 68 68 67 65 66 71 72 68 70 72 67 59 52 53 56 55 58 61 64 65 63 62 62 62 59 53 52 52 41 32 32 31 32 29 26 20 10 15 20 17 10
2 1 0 1 2 4 6 7 9 9 10 10 10 11 10 7 4 1 359 354 344 337 332 324 321 345 352 344 330 240 185 166 147 153 117 86 90 89 86 82 78 74 71 70 69 67 66 66 67 74 80 80 80 79 77 74 66 60 60 61 61 61 61 61 58 58 58 54 45 37 40 43 37 31 28 29 36 36 32 23 12 16 21 17 12
5 4 0 1 2 3 6 9 13 16 16 17 15 14 13 10 7 3 1 357 354 351 346 340 331 334 352 12 20 201 197 195 177 161 143 128 117 100 94 89 83 79 76 73 70 68 66 64 65 69 75 78 78 78 79 79 74 66 60 57 55 50 48 48 47 49 51 51 46 40 39 40 38 37 36 35 37 35 32 26 18 17 18 16 12
3 1 358 358 2 7 9 10 15 20 23 24 22 20 17 15 11 8 5 359 357 356 356 358 350 344 353 12 44 75 194 244 181 141 114 138 143 119 106 93 83 80 81 80 73 68 66 62 63 67 71 76 77 78 79 78 74 69 63 58 54 46 39 40 45 47 48 49 49 45 43 42 41 40 38 35 34 32 29 25 21 17 16 16 12
349 349 351 351 355 5 8 7 9 13 17 21 23 23 20 18 15 13 12 5 2 360 359 8 6 3 7 6 40 67 55 287 187 86 75 104 132 137 131 108 90 80 81 84 80 70 64 60 60 64 68 74 75 74 74 72 70 69 66 60 54 49 47 49 51 52 50 50 49 47 46 44 43 39 37 33 28 25 23 22 22 18 16 17 14
333 336 344 346 348 359 1 357 357 355 359 6 11 14 11 11 10 10 14 11 8 1 356 6 14 21 26 24 44 69 101 181 201 163 131 141 142 136 122 111 107 97 85 83 85 77 64 59 58 61 65 68 70 69 69 69 69 68 69 67 60 56 57 59 59 57 56 54 52 51 48 46 43 39 37 33 26 23 24 25 24 19 18 19 17
321 325 337 341 342 354 356 348 344 343 347 356 2 5 2 1 1 2 7 9 10 2 351 356 9 22 31 37 45 50 69 85 200 185 177 173 149 129 116 109 104 104 97 85 82 78 70 65 62 62 64 66 69 71 72 74 74 71 73 75 72 65 62 60 59 58 57 55 53 51 49 46 44 41 38 36 33 31 31 29 25 21 20 21 19
315 319 330 334 338 352 354 346 338 337 341 350 358 2 358 358 359 360 2 7 10 5 355 353 1 15 25 32 36 35 45 34 353 185 184 175 146 123 119 115 112 118 109 89 80 76 72 72 68 67 69 72 76 79 79 78 77 75 73 73 73 71 68 63 59 56 53 52 51 49 47 46 44 43 42 41 39 36 34 30 27 25 24 23 21
307 316 325 326 337 353 351 345 340 332 336 344 351 356 358 356 358 359 359 2 5 2 357 353 352 5 16 19 24 28 33 21 5 109 175 167 149 133 115 103 108 117 107 92 86 80 75 75 75 74 76 80 83 83 81 79 76 74 72 69 67 65 65 64 61 58 54 50 48 47 46 45 46 45 44 43 42 39 36 34 32 31 30 27 25
306 319 325 323 336 351 346 339 338 334 340 347 347 352 356 355 352 350 347 346 347 348 352 352 345 348 357 4 14 19 19 19 19 79 179 176 163 152 143 126 102 92 92 89 87 88 88 83 82 82 82 85 86 83 80 77 74 71 69 68 64 61 59 58 58 58 57 54 49 46 47 47 48 47 46 46 45 44 42 41 40 38 35 33 31
323 326 328 326 333 345 343 334 334 341 354 1 358 357 355 349 344 340 336 335 335 335 341 350 352 353 350 345 359 12 9 5 23 136 183 190 183 169 162 157 139 109 102 102 91 94 102 93 86 87 89 90 87 83 80 76 73 70 67 66 63 60 57 55 54 54 56 58 54 49 48 50 51 49 48 48 48 48 48 46 44 41 38 35 34
331 328 326 325 330 340 342 333 334 348 2 8 3 358 351 343 338 337 337 339 336 332 338 346 352 359 348 331 346 6 7 360 10 132 182 190 185 178 173 163 149 142 130 118 96 93 116 113 102 97 98 98 93 87 82 77 73 70 68 67 65 62 58 54 54 53 54 57 58 54 50 50 52 51 50 50 50 50 49 47 43 41 38 35 33
328 325 316 309 320 332 335 330 334 339 345 352 354 354 349 339 334 335 342 344 338 336 346 346 345 347 332 326 347 7 11 4 7 50 178 190 190 189 188 178 170 169 150 131 88 77 106 118 119 116 111 105 99 91 85 81 77 74 72 70 68 66 62 57 55 55 55 56 59 59 56 54 53 53 53 53 52 50 47 43 40 37 36 35 33
323 320 302 280 295 315 320 321 330 330 330 342 351 354 349 337 330 333 343 345 335 338 355 355 350 347 332 332 356 31 33 12 7 27 102 188 198 201 202 202 209 200 159 137 108 85 114 124 127 125 119 111 105 98 92 88 83 79 76 74 72 69 65 62 59 58 58 58 58 59 59 58 57 56 55 54 52 48 43 39 36 34 33 33 33
312 310 286 257 266 297 305 311 325 329 330 343 351 351 347 337 329 330 340 345 338 339 357 0 357 357 346 345 16 69 64 15 349 345 359 205 202 205 210 214 217 209 166 133 108 90 122 137 137 129 123 117 111 104 99 95 90 85 81 79 76 72 69 67 65 62 61 59 58 57 56 56 55 54 53 52 51 47 41 37 34 34 34 34 34
297 292 269 244 248 280 293 297 306 311 325 342 348 346 344 339 333 331 337 344 340 341 352 355 2 7 3 4 35 60 46 4 346 327 307 281 234 212 211 214 205 194 171 135 116 107 122 140 141 134 130 124 114 109 106 102 98 91 87 83 79 75 73 71 69 67 64 60 57 56 54 53 52 50 50 51 51 47 40 37 36 36 36 37 36
281 275 262 244 245 266 283 285 279 296 326 339 341 340 341 340 338 337 338 340 340 341 344 348 2 16 14 17 33 50 38 11 4 352 324 289 261 218 200 204 194 179 172 145 128 122 127 142 146 140 138 133 123 120 116 110 106 99 94 89 83 80 78 76 75 73 68 63 58 55 54 52 50 48 49 53 54 48 42 39 38 38 38 39 38
273 270 261 250 253 272 281 271 263 297 326 332 333 334 336 339 340 338 335 333 330 330 334 342 2 17 16 17 29 53 42 16 11 3 347 320 244 201 181 184 181 171 168 159 144 136 135 143 152 153 152 145 135 131 126 119 115 110 101 95 90 87 85 81 79 76 71 66 60 56 54 52 51 51 53 57 56 49 44 41 40 39 39 39 39
267 264 255 251 267 285 268 248 259 296 321 329 333 330 328 332 333 330 327 324 317 308 310 325 347 9 13 17 24 39 34 16 13 7 1 61 158 166 161 164 169 164 159 162 160 154 149 146 154 164 166 160 150 143 139 132 127 121 110 102 99 94 89 85 82 78 73 68 62 58 55 53 54 55 58 59 57 51 46 43 41 39 38 38 38
259 257 253 256 270 272 244 244 261 286 318 337 340 331 323 325 326 324 323 322 314 294 276 292 334 8 11 15 24 25 19 15 23 28 46 128 148 153 153 154 158 157 156 160 163 162 157 150 149 159 167 167 162 159 159 150 141 135 124 113 106 99 92 88 83 77 74 70 65 60 58 56 56 58 60 60 57 52 47 44 41 39 38 37 37
250 251 253 255 258 249 236 242 250 267 310 339 345 334 323 324 328 328 328 330 327 284 218 203 79 28 20 23 29 29 22 29 46 60 102 138 146 148 149 150 153 155 156 157 158 160 157 150 146 148 152 156 158 158 166 168 158 150 143 132 119 106 98 90 79 73 72 71 67 62 58 56 57 59 61 60 57 53 49 45 42 39 37 36 37
240 248 249 247 246 238 231 234 238 250 297 330 342 339 328 330 334 337 344 358 28 109 141 132 114 74 51 46 41 38 39 62 78 86 110 134 141 143 144 146 151 152 149 152 156 157 153 147 145 144 144 147 150 151 159 171 171 161 157 152 141 125 111 94 77 72 75 74 70 65 60 58 58 59 61 60 58 54 50 46 42 39 37 36 36
237 247 245 240 235 223 221 228 233 241 278 308 328 340 337 340 344 348 7 35 74 104 114 114 108 103 88 76 68 61 62 91 108 106 115 128 133 135 137 142 148 147 146 150 156 156 153 148 145 146 145 145 147 147 151 162 163 158 161 161 153 151 145 115 85 77 79 79 74 66 59 57 59 59 60 62 60 55 50 47 42 38 36 35 35
232 242 240 236 231 218 217 227 233 239 263 281 299 330 342 348 350 351 36 64 85 96 101 105 100 96 95 92 92 88 83 99 119 131 138 138 136 136 139 143 147 147 148 154 159 160 158 153 149 150 149 146 149 149 151 160 160 152 154 150 141 144 148 125 98 88 87 84 77 69 59 56 59 59 61 65 62 56 51 47 42 37 34 33 34
224 233 234 229 225 220 221 228 231 236 251 258 260 277 317 349 350 328 114 96 97 94 95 101 100 98 99 97 94 90 88 94 105 124 138 138 137 137 136 139 139 142 156 164 166 168 167 161 158 158 155 151 157 161 160 166 166 155 152 144 131 132 134 120 101 94 94 88 80 73 65 60 60 63 66 68 64 57 52 48 41 37 34 32 32
218 226 229 222 214 213 220 227 230 235 245 245 244 246 248 311 336 265 178 129 113 104 97 99 101 102 104 104 102 96 93 95 101 112 121 125 129 129 130 132 125 122 177 182 179 178 176 169 165 167 165 159 163 170 167 165 164 160 157 148 137 135 133 124 112 100 97 94 86 80 73 64 64 68 72 72 66 59 54 48 39 35 34 32 32
214 220 222 215 208 207 214 222 227 233 242 243 239 235 229 227 248 229 200 168 135 116 103 98 97 97 98 102 106 104 100 99 105 118 126 130 137 141 148 162 173 190 208 215 208 203 196 183 172 169 169 163 161 165 164 159 161 164 161 153 148 147 141 132 126 115 107 104 95 85 77 69 68 72 75 75 69 61 55 47 38 35 34 33 33
213 216 216 210 207 209 214 220 227 231 236 240 238 230 223 214 210 217 212 196 166 131 114 105 100 96 92 93 96 95 94 94 100 119 137 147 155 164 179 194 201 200 197 202 216 225 217 197 180 169 166 164 161 161 160 154 158 167 167 162 158 156 149 139 133 128 123 118 103 89 80 74 73 75 77 77 69 59 55 47 40 37 35 33 34
212 213 213 210 209 212 216 219 227 232 232 236 237 229 220 212 207 211 213 206 193 168 139 118 106 97 91 90 94 92 89 87 85 90 110 131 143 147 148 145 136 131 126 123 122 115 131 171 175 167 164 165 164 164 164 160 158 166 174 173 165 157 150 144 140 137 133 127 110 91 80 75 78 79 79 79 69 57 55 49 41 38 36 33 34
215 215 214 214 214 215 218 220 225 229 229 233 236 227 217 210 206 207 209 208 203 195 171 140 117 104 95 93 99 99 95 89 85 83 91 111 127 129 124 118 114 112 107 103 102 108 120 137 151 154 153 157 164 167 170 172 164 156 164 166 161 156 147 142 143 145 143 139 123 99 87 83 83 84 82 80 71 58 53 48 42 39 36 33 33
217 217 217 218 220 219 218 220 225 228 227 230 233 226 216 210 207 207 208 208 208 205 189 163 137 118 109 107 109 108 102 95 91 91 98 115 128 127 120 114 111 108 105 103 103 109 118 128 139 147 150 153 160 166 175 183 176 161 154 151 151 152 145 135 135 144 149 152 147 122 109 99 90 89 87 81 72 61 54 50 44 39 35 32 32
215 217 217 219 223 224 220 220 223 225 226 228 230 224 215 211 209 208 208 210 210 209 200 182 163 146 138 139 136 127 116 107 104 105 110 124 133 128 123 118 114 110 105 102 100 99 100 106 119 138 154 160 161 161 167 177 178 172 161 151 151 156 150 138 131 137 145 149 148 133 117 109 103 97 91 82 71 60 51 51 47 39 35 33 32
216 217 217 219 224 226 224 223 223 224 225 228 229 223 216 213 212 211 211 212 212 211 207 196 184 175 173 176 178 170 144 125 119 118 120 129 136 135 131 125 118 114 109 103 97 90 84 83 88 101 134 154 161 158 154 164 175 176 168 157 164 171 164 154 144 137 138 145 149 142 126 122 118 105 93 81 66 53 43 48 49 40 37 35 33
221 220 219 219 223 226 227 225 223 223 225 228 229 224 217 214 215 215 214 214 214 214 212 207 200 194 193 195 197 197 188 166 148 138 136 138 140 142 141 134 126 122 117 109 100 89 77 74 79 85 97 121 144 150 149 161 173 175 172 175 196 193 182 169 156 145 139 154 161 156 143 140 140 122 96 80 64 50 42 51 59 49 43 38 34